Back to catalog

YAOGAN-35 03B

AliveMilitaryVLEO
NORAD 53318·PAYLOAD·🇨🇳 China

Launched Jul 29, 2022 from Xichang Satellite Launch Center

Loading…

Next Passes (next 24 hours)

TLE

FreshSource: Space-Track

Epoch: Sep 14, 2026, 15:39 UTC

1 53318U 22088C   26257.65241728  .00007197  00000-0  27455-3 0  9997
2 53318  34.9893   3.9657 0011463 106.1729 254.0249 15.25904534230019

Track YAOGAN-35 03B in real time with AllMySat

Download on the App Store